Location: Wingville
(42.9917°N, 90.4915°W)
Time: 21:45:39
(UTC+00:00)

CUBESAT XI-V - Pass Details

Date: 07 July 2022
Orbit: 668 x 690 km, 98.1° (Epoch: 15 August)

Event Time Altitude Azimuth Distance (km) Brightness Sun altitude
Exits shadow 08:11:54 38° 214° (SSW) 1,027 ? -18.4°
Maximum altitude 08:13:12 49° 260° (W) 861 ? -18.3°
Drops below altitude 10° 08:17:40 10° 336° (NNW) 2,104 ? -17.9°
Sets 08:19:58 0° 342° (NNW) 3,021 ? -17.6°
